Terug naar catalogus

ASTRA 1G

ActiefCommunicatieGEO
NORAD 25071·PAYLOAD·🇱🇺 Luxembourg

Gelanceerd Dec 2, 1997 vanaf Baikonur Cosmodrome

Loading…

TLE

VersSource: Space-Track

Epoch: Sep 14, 2026, 19:34 UTC

1 25071U 97076A   26257.81592112 -.00000284  00000-0  00000-0 0  9990
2 25071   9.7086  53.9566 0010873 154.0741 215.7150  0.99040209105260

Volg ASTRA 1G in realtime met AllMySat

Download on the App Store